Overview Statistics Trail Chart Weather Telemetry Raw packets
 

This is the latest recevied weather packets stored in our database for station/object HS2LXA-WX. If no packets are shown the sender has not sent any weather packets the latest 10 day(s).

<< 42 43 44 45 46 47 48 >>
Time Temp. Humidity Pressure Rain* Wind** Luminosity Snow
1787883137 30.56° C 88% 1011.2 hPa 0 mm - - -
1787882537 30.56° C 88% 1011.1 hPa 0 mm - - -
1787881789 31.11° C 87% 1011.1 hPa 0 mm - - -
1787881190 31.67° C 85% 1011 hPa 0 mm - - -
1787880586 32.22° C 85% 1010.9 hPa 0 mm - - -
1787879986 31.67° C 86% 1010.6 hPa 0 mm - - -
1787879387 31.67° C 87% 1010.7 hPa 0 mm - - -
1787878786 31.67° C 87% 1010.3 hPa 0 mm - - -
1787878185 31.11° C 88% 1010.3 hPa 0 mm - - -
1787877415 31.11° C 89% 1010.3 hPa 0 mm - - -
1787876815 31.11° C 89% 1010.1 hPa 0 mm - - -
1787876214 30.56° C 88% 1010 hPa 0 mm - - -
1787875615 30.56° C 89% 1010 hPa 0 mm - - -
1787875015 30.56° C 88% 1009.8 hPa 0 mm - - -
1787874414 30.56° C 88% 1009.6 hPa 0 mm - - -
1787873814 30.56° C 88% 1009.5 hPa 0 mm - - -
1787873214 30° C 88% 1009.6 hPa 0 mm - - -
1787872614 30° C 89% 1009.5 hPa 0 mm - - -
1787872014 30.56° C 88% 1009.4 hPa 0 mm - - -
1787871421 30.56° C 88% 1009.3 hPa 0 mm - - -
1787870813 30.56° C 88% 1009.1 hPa 0 mm - - -
1787870213 30.56° C 87% 1009.1 hPa 0 mm - - -
1787869474 30.56° C 88% 1009.1 hPa 0 mm - - -
1787868875 30° C 88% 1009.3 hPa 0 mm - - -
1787867884 30.56° C 86% 1009.1 hPa 0 mm - - -

* Rain latest hour (hover to see other rain measurements)
** Current wind speed in m/s (hover to see current wind gust speed)